This demonstration page uses our WeatherBlox Daily Observations layout. Learn more.

Left ArrowRight Arrow

41.86663, -103.66717

Hourly Observations for November 30, 2019

Temp ( °F °C ) Dew Point ( °F °C ) Humidity (%) Winds ( mph kmh ) Pressure ( in mb ) Visibility ( mi km ) Precip ( " mm )
12:16 am 00:16 Mostly Cloudy with Light Snow 31 -0.6 30 -1.1 96 96 N 10 17 29.43 997 1 2 0.03 0.76
12:53 am 00:53 Cloudy with Light Snow 31 -0.6 30 -1.1 96 96 N 10 17 29.36 994 2 2 0.07 1.78
1:48 am 01:48 Cloudy with Light Snow 30 -1 28 -2 93 93 NNW 10 17 29.44 997 1 2 0.00 0.00
1:53 am 01:53 Cloudy with Light Snow 31 -0.6 29 -1.7 92 92 NW 12 19 29.37 995 2 2 0.03 0.76
2:19 am 02:19 Cloudy with Light Snow 30 -1.1 28 -2.2 92 92 NW 14 22 29.46 997 2 2 0.01 0.25
2:34 am 02:34 Cloudy with Light Snow 29 -1.7 27 -2.8 92 92 NNW 17 28 29.48 998 2 3 0.01 0.25
2:53 am 02:53 Windy with Snow Likely 29 -1.7 26 -3.3 89 89 NNW 20 31 29.41 996 3 5 0.01 0.25
3:19 am 03:19 Windy with Snow Likely 28 -2.2 25 -3.9 88 88 NNW 20 31 29.49 999 3 4 0.00 0.00
3:30 am 03:30 Windy with Snow Likely 28 -2.2 25 -3.9 88 88 NW 20 31 29.50 999 4 6 0.00 0.00
3:53 am 03:53 Cloudy with Light Snow 28 -2.2 24 -4.4 85 85 NW 16 26 29.44 997 5 8 0.00 0.00
4:50 am 04:50 Windy with Snow Likely 27 -3 25 -4 93 93 NW 23 37 29.58 1002 2 3 0.00 0.00
4:53 am 04:53 Windy with Snow Likely 27 -2.8 24 -4.4 89 89 NW 21 33 29.48 998 2 3 0.00 0.00
5:00 am 05:00 Windy with Snow Likely 27 -2.8 24 -4.4 89 89 NW 20 31 29.58 1002 2 2 0.00 0.00
5:53 am 05:53 Cloudy with Light Snow 27 -2.8 26 -3.3 96 96 NW 14 22 29.50 999 1 2 0.01 0.25
6:09 am 06:09 Windy with Snow Likely 28 -2.2 25 -3.9 88 88 NW 21 33 29.59 1002 3 5 0.00 0.00
6:18 am 06:18 Windy with Snow Likely 27 -2.8 24 -4.4 89 89 NW 25 41 29.60 1002 4 6 0.00 0.00
6:53 am 06:53 Cloudy 26 -3.3 23 -5 88 88 WNW 29 46 29.52 1000 7 11 0.00 0.00
7:19 am 07:19 Windy with Snow Likely 26 -3.3 22 -5.6 84 84 WNW 25 41 29.63 1003 3 4 0.00 0.00
7:44 am 07:44 Windy with Snow Likely 25 -3.9 23 -5 92 92 WNW 26 43 29.65 1004 2 2 0.00 0.00
7:53 am 07:53 Windy with Snow Likely 25 -3.9 23 -5 92 92 WNW 28 44 29.54 1001 2 3 0.00 0.00
8:01 am 08:01 Windy with Snow Likely 26 -3.3 23 -5 88 88 WNW 28 44 29.64 1004 2 2 0.00 0.00
8:14 am 08:14 Windy with Snow Likely 26 -3.3 22 -5.6 84 84 NW 30 48 29.65 1004 1 2 0.00 0.00
8:19 am 08:19 Windy with Snow Likely 26 -3.3 22 -5.6 84 84 NW 36 57 29.65 1004 1 1 0.00 0.00
8:37 am 08:37 Windy with Snow Likely 25 -3.9 22 -5.6 88 88 NW 35 56 29.68 1005 1 1 0.00 0.00
8:53 am 08:53 Windy with Snow Likely 25 -3.9 22 -5.6 88 88 NW 30 48 29.59 1002 1 1 0.00 0.00
11:13 am 11:13 Windy with Snow Likely 25 -3.9 21 -6.1 85 85 WNW 30 48 29.76 1008 1 2 0.00 0.00
11:44 am 11:44 Cloudy with Blowing Snow 25 -3.9 21 -6.1 85 85 WNW 33 54 29.78 1009 1 2 0.00 0.00
11:53 am 11:53 Cloudy with Blowing Snow 25 -3.9 20 -6.7 81 81 WNW 29 46 29.69 1006 2 3 0.00 0.00
12:09 pm 12:09 Cloudy with Blowing Snow 24 -4.4 20 -6.7 84 84 WNW 35 56 29.80 1009 2 2 0.00 0.00
12:21 pm 12:21 Cloudy with Blowing Snow 24 -4.4 20 -6.7 84 84 WNW 31 50 29.81 1010 3 4 0.00 0.00
12:39 pm 12:39 Cloudy with Blowing Snow 24 -4.4 20 -6.7 84 84 WNW 36 57 29.82 1010 1 2 0.00 0.00
12:53 pm 12:53 Cloudy with Blowing Snow 24 -4.4 21 -6.1 88 88 WNW 31 50 29.72 1006 2 2 0.00 0.00
1:33 pm 13:33 Windy with Snow Likely 24 -4.4 20 -6.7 84 84 NW 37 59 29.86 1011 1 1 0.00 0.00
1:53 pm 13:53 Windy with Snow Likely 24 -4.4 20 -6.7 84 84 NW 36 57 29.77 1008 1 1 0.00 0.00
2:21 pm 14:21 Cloudy with Blowing Snow 25 -4 19 -7 80 80 WNW 38 61 29.90 1012 1 1 0.00 0.00
2:31 pm 14:31 Cloudy with Blowing Snow 24 -4.4 20 -6.7 84 84 WNW 35 56 29.90 1013 1 2 0.00 0.00
2:42 pm 14:42 Cloudy with Blowing Snow 25 -4 19 -7 80 80 NW 35 56 29.92 1013 2 3 0.00 0.00
2:53 pm 14:53 Cloudy with Blowing Snow 24 -4.4 20 -6.7 84 84 WNW 33 54 29.83 1010 2 3 0.00 0.00
3:00 pm 15:00 Cloudy with Blowing Snow 24 -4.4 20 -6.7 84 84 NW 36 57 29.93 1014 2 2 0.00 0.00
3:41 pm 15:41 Mostly Cloudy with Blowing Snow 25 -4 19 -7 80 80 WNW 37 59 29.97 1015 3 4 0.00 0.00
3:53 pm 15:53 Partly Cloudy with Blowing Snow 23 -5 19 -7.2 85 85 WNW 32 52 29.89 1012 3 4 0.00 0.00
4:06 pm 16:06 Mostly Cloudy with Blowing Snow 23 -5 19 -7 86 86 WNW 31 50 29.99 1016 3 5 0.00 0.00
4:18 pm 16:18 Cloudy with Blowing Snow 23 -5 19 -7.2 85 85 WNW 35 56 30.00 1016 2 3 0.00 0.00
4:37 pm 16:37 Cloudy with Blowing Snow 23 -5 18 -7.8 81 81 WNW 29 46 30.02 1017 5 8 0.00 0.00
4:53 pm 16:53 Cloudy 23 -5 19 -7.2 85 85 WNW 30 48 29.94 1014 7 11 0.00 0.00
5:53 pm 17:53 Hazy 22 -5.6 17 -8.3 82 82 NW 33 54 29.97 1015 4 6 0.00 0.00
6:53 pm 18:53 undefined 22 -5.6 17 -8.3 82 82 undefined N/A 30.01 1016 N/A 0.00 0.00
7:53 pm 19:53 undefined N/A N/A N/A undefined N/A N/A N/A 0.00 0.00
8:53 pm 20:53 undefined N/A N/A N/A undefined N/A N/A N/A 0.00 0.00
9:53 pm 21:53 undefined N/A N/A N/A undefined N/A N/A N/A 0.00 0.00
10:53 pm 22:53 undefined N/A N/A N/A undefined N/A N/A N/A 0.00 0.00
11:53 pm 23:53 undefined N/A N/A N/A undefined N/A N/A N/A 0.00 0.00

Powered by AerisWeather